SL-14 DEB, 45321

Orbit data source: Space-Track

SL-14 DEB, 45321 is space debris in LEO originally from a launch on Thu, 15 Aug 1991 UTC launched from the Plesetsk Missile And Space Complex (PKMTR). Debris objects in space refer to the collection of defunct objects orbiting the Earth. Examples of debris include non-operational satellites, rocket bodies, and fragments generated from explosions, collisions, or faulty payload assembly.

Loading next visibility...
Identifier
45321, 1991-056BK
Orbit
LEO
Country
Flag of CISCIS
Related business
Manufacturer
Unknown
Mission
Spacecraft
Bus & Motor
Unknown
Mass
Unknown
Launch date (UTC)
1991-08-15 (34 years ago)
Launch vehicle
Unknown
Launch site
Plesetsk Missile And Space Complex (PKMTR)
Object type
Payload
Rocket body
Debris
Shape & HBR
Unknown shape, 0.1 m
Radar Cross Section
Small (<0.1 m²)

Expand to show TLE details & history
Last TLE update: 2 days ago

TLE from 2 days ago
0 SL-14 DEB
1 45321U 91056BK  25285.45842054  .00000149  00000-0  34166-3 0  9997
2 45321  82.5602 310.0978 0022351   0.7234 359.3918 13.19418064270708
Epoch: 2025-10-12T11:00Z
TLE epoch observation values (Epoch: 2025-10-12T11:00:07.534Z)
Latitude
-0.00004°
Longitude
123.79114°
Altitude
1,172.844 km
Speed
7.275 km/s
True Right ascension
20h 40m 23s
True Declination
0° 00' 00"
Sunlit
Object was in daylight at epoch
Visualization orbit readout
Latitude
Unknown
Longitude
Unknown
Altitude
Unknown
Speed
Unknown
Apparent Right ascension
Unknown
Apparent Declination
Unknown
Sunlit
N/A
Visualization observer readout
Local Sidereal Time
02:52:14
Azimuth
Unknown
Elevation
Unknown
Doppler factor
Unknown
Orbital elements
Apogee altitude
1,201.087 km
Perigee altitude
1,167.282 km
Semi-major axis
7,562.322 km
Eccentricity
0.00224
Inclination
82.5602°
RAAN
310.0978°
Arg. of periapsis
0.7234°
True anomaly
359.38907°
Mean anomaly
359.3918°
Eccentric anomaly
359.39044°
Mean motion
3.30035 °/min
Orbital period
109.08 mins
BSTAR
0.00034166
Loading maneuver chart data...
Computing Atmospheric mass density...
Loading historical data...
Loading historical data...
Loading historical data...
Loading historical data...
Loading historical data...
Loading historical data...
Loading historical data...

Documentation

Showing up to 5 results
|